Location: Bieg
(49.3499°N, 10.3835°E)
Time: 21:38:16
(UTC+00:00)

Cosmos 1025 Rocket - Pass Details

Date: 23 May 2024
Orbit: 589 x 615 km, 82.5° (Epoch: 25 June)

Event Time Altitude Azimuth Distance (km) Brightness Sun altitude
Rises 02:39:46 0° 175° (S) 2,870 6.1 -6.6°
Reaches altitude 10° 02:42:01 10° 171° (S) 1,971 5.3 -6.3°
Maximum altitude 02:46:16 53° 95° (E) 758 3.9 -5.8°
Drops below altitude 10° 02:50:33 10° 18° (NNE) 1,987 6.7 -5.3°
Sets 02:52:49 0° 14° (NNE) 2,896 7.5 -5.0°
